Helicity
-126 -67 35 118 286 563 633 556 454 405 454 332 201 385 272 100 127 90 297 323 378 410 420 403 370 375 400 387 403 364 343 350 244 162 186 248 189 191 211 188 177 183 160
5 -85 -101 -38 95 282 619 716 596 550 548 545 432 365 279 256 382 110 12 318 296 384 415 427 394 405 353 341 413 332 312 355 299 222 237 277 258 236 217 237 231 203 177
-57 -77 -79 -87 11 165 279 440 637 591 630 536 544 478 287 383 304 403 246 223 597 285 385 372 368 388 359 362 359 343 357 381 394 295 256 294 297 307 312 259 236 203 189
28 -78 -62 -59 -63 -25 106 361 530 581 534 484 490 509 401 309 331 326 449 329 110 198 311 388 339 335 308 320 342 341 366 379 385 396 370 366 358 350 331 284 257 253 196
41 -53 -57 -72 -61 -41 -43 7 199 321 400 492 422 477 392 431 444 406 235 383 300 95 39 53 325 286 227 305 338 288 307 379 401 374 402 439 424 428 364 373 279 248 212
42 33 -81 -37 -17 -60 -22 0 -3 79 233 268 303 418 356 295 302 394 500 393 239 126 227 17 106 307 271 230 296 338 361 375 350 349 326 343 342 349 410 386 348 360 257
-36 8 35 -39 -29 -3 -2 -15 3 36 92 189 247 238 191 177 305 350 310 262 183 176 203 248 168 107 64 300 262 334 275 262 228 288 294 291 244 294 362 358 339 356 278
-45 -38 -38 -27 -36 -27 5 21 17 10 52 129 155 184 206 219 271 341 304 247 289 207 232 199 188 292 251 172 280 216 205 259 276 291 212 229 227 225 272 263 297 305 336
-84 -55 -32 -32 -9 -15 -4 15 22 17 1 18 42 123 153 184 267 267 247 236 207 238 239 254 310 242 247 423 228 206 215 185 190 202 244 219 204 211 268 275 298 411 338
-88 -74 -66 -52 -43 -24 -10 -1 2 16 18 18 32 59 81 107 141 176 185 153 190 182 154 205 199 262 264 171 309 338 201 352 380 259 235 213 224 260 288 303 290 315 315
-4 -66 -66 -62 -73 -51 -26 -22 12 15 15 35 20 22 45 55 60 129 149 112 150 181 169 176 187 216 253 248 235 291 369 317 302 253 336 228 273 235 312 300 249 308 306
5 -10 -51 -69 -86 -66 -38 -16 2 27 32 42 47 49 44 61 67 71 99 99 100 111 148 145 159 193 191 171 128 200 325 395 311 358 349 332 300 284 257 349 330 370 343
-19 -8 -16 -54 -72 -73 -42 -13 -1 13 28 46 49 68 79 57 44 61 93 105 85 83 87 120 159 143 139 145 150 144 122 150 236 291 432 480 436 408 440 427 389 365 380
-46 -44 -41 -33 -32 -42 -49 -36 -22 5 26 23 37 47 60 60 53 63 62 79 80 73 76 77 79 99 96 101 120 110 120 104 149 263 334 496 490 447 386 336 382 434 415
-34 -60 -76 -70 -41 -29 -54 -66 -36 -14 -4 8 1 3 9 38 66 96 88 53 62 65 56 44 71 71 106 126 142 139 109 101 109 143 217 284 432 482 478 523 400 384 389
-23 -26 -51 -67 -75 -60 -27 -22 -21 -17 12 17 11 -13 -30 -7 39 68 64 58 54 37 40 58 74 72 87 110 139 162 124 137 139 134 148 191 262 383 453 445 414 460 383
-24 -30 -28 -45 -59 -62 -64 -46 1 -6 11 22 18 8 22 29 20 32 54 57 32 28 20 62 80 94 91 89 94 119 147 156 122 128 147 154 166 234 317 397 347 439 447
1 -15 -17 -31 -41 -56 -71 -80 -77 -47 -4 19 -5 -1 32 61 32 27 46 21 48 48 31 45 66 81 94 97 100 88 99 113 126 126 107 112 119 137 201 260 206 202 198
7 6 -8 -18 -25 -40 -41 -44 -53 -60 -51 -20 2 -11 19 62 24 25 41 8 34 58 68 66 60 66 72 73 81 84 77 78 77 94 101 95 99 103 135 122 142 142 133
14 0 -4 -10 -18 -19 -23 -25 -30 -31 -34 -37 -26 -10 15 5 28 50 53 64 57 41 50 65 66 59 60 67 69 69 67 70 71 66 70 81 104 118 112 107 127 181 190
22 17 5 2 -6 -8 -6 -15 -17 -17 -20 -22 -25 -27 -12 -9 3 16 40 61 72 69 62 49 58 59 54 52 48 49 54 61 62 71 76 70 70 89 106 123 121 121 130
25 17 16 11 6 -2 -5 0 1 -4 -5 -2 -6 -16 -14 -12 5 25 37 34 48 52 54 53 44 38 52 52 52 47 47 51 53 61 69 75 79 78 86 94 101 113 115
32 15 23 20 18 11 11 14 12 13 12 8 3 -1 -8 -10 6 21 46 44 31 32 43 45 46 52 50 46 34 22 29 39 36 38 48 61 73 86 88 84 86 92 96
54 45 21 25 23 22 23 34 27 31 24 6 -1 1 -3 -8 1 16 25 36 40 39 31 34 39 55 62 58 48 39 35 24 15 16 22 28 49 66 85 100 106 100 106
52 46 48 34 27 17 26 31 43 37 24 2 -7 -11 -14 -16 -4 8 23 26 30 34 42 43 40 58 62 71 78 72 58 40 26 21 28 26 32 37 51 71 89 109 108
58 48 43 45 39 15 20 25 31 32 31 -2 -14 -19 -22 -15 -10 -1 8 26 37 31 56 55 62 65 62 50 68 72 58 40 25 15 26 34 33 42 53 57 59 81 100
Wind_Speed
86 86 80 75 71 62 57 58 60 62 68 66 72 62 68 78 76 104 98 106 105 106 110 104 103 94 96 94 92 87 85 78 82 69 69 61 50 47 48 46 46 43 44
93 84 79 65 64 64 58 57 56 55 55 56 55 49 54 62 65 77 87 91 106 105 107 109 107 100 97 93 92 97 91 85 86 88 72 65 61 57 54 53 53 54 53
86 82 79 79 71 68 61 60 56 54 48 42 40 36 40 49 55 58 67 65 52 101 107 105 107 103 105 100 96 96 94 88 86 88 84 70 67 64 62 61 60 60 57
51 76 80 79 66 62 62 63 62 59 48 36 33 28 29 40 44 42 52 63 62 66 61 79 103 106 107 100 99 96 93 92 86 85 81 77 75 69 68 68 68 66 68
74 41 71 70 69 60 60 60 54 50 44 33 27 25 31 43 47 38 36 42 55 66 67 66 67 88 101 100 99 99 95 94 92 92 91 85 83 77 76 72 73 71 70
80 55 52 67 64 58 45 43 34 44 44 34 29 28 35 39 44 39 36 39 57 62 69 70 59 70 86 107 97 95 91 93 93 94 97 96 92 85 78 76 75 73 76
74 78 60 63 64 62 61 52 46 41 44 38 36 35 36 41 46 41 36 36 41 44 49 56 64 65 63 86 101 98 92 88 88 85 92 95 96 86 78 78 74 74 74
74 71 71 66 60 56 60 63 47 49 48 44 43 41 42 44 47 46 40 41 40 42 41 40 47 60 66 71 84 97 99 93 89 86 83 79 78 75 74 77 77 81 81
71 75 76 65 58 49 51 60 51 48 47 46 44 47 47 48 50 50 46 43 41 41 42 43 44 50 55 70 77 88 100 105 96 92 89 85 81 77 69 70 77 75 80
72 71 68 65 59 47 40 48 56 50 51 49 48 48 47 48 50 50 46 44 44 45 45 46 44 48 53 53 64 78 89 90 96 98 99 100 93 85 72 71 72 72 75
74 70 67 66 60 54 42 52 57 57 56 54 51 49 48 47 48 52 52 48 48 50 52 53 52 54 56 54 53 53 68 75 84 90 93 95 95 92 85 78 73 72 74
73 73 71 68 64 61 60 57 58 59 60 58 54 52 50 51 53 53 52 50 50 50 54 55 54 57 59 57 53 53 57 65 70 77 86 94 89 92 88 82 80 80 76
75 75 75 73 68 64 65 63 60 56 54 55 55 55 55 54 54 55 56 54 53 53 55 55 55 54 57 56 55 53 52 54 56 61 66 75 80 81 79 79 75 80 74
75 77 77 75 72 67 64 60 59 59 59 57 57 58 58 57 58 60 58 56 56 56 56 54 51 51 51 55 53 51 53 51 52 60 62 62 63 64 68 65 76 77 76
76 77 75 75 74 71 66 63 61 59 59 60 59 59 60 61 64 63 62 59 58 57 55 51 51 50 52 52 53 51 54 53 57 59 59 59 61 62 63 65 67 68 72
77 77 77 75 72 71 70 66 62 61 61 60 60 60 60 60 62 62 62 61 58 55 53 52 53 52 53 54 55 53 53 55 57 59 61 63 63 64 66 63 64 63 69
73 76 76 75 73 71 68 68 69 65 63 62 62 62 63 64 61 62 62 60 56 54 53 53 54 55 55 56 55 54 55 55 55 59 59 61 60 66 67 68 69 69 71
72 72 74 73 71 71 69 67 66 68 69 68 65 64 65 65 62 62 62 58 56 55 55 56 57 58 57 58 56 55 55 57 59 60 61 62 62 61 64 68 71 70 70
71 73 75 72 70 70 69 68 66 66 68 69 69 67 67 65 61 60 59 57 58 57 56 56 57 58 57 58 58 58 59 61 61 62 63 63 64 64 63 63 72 73 76
69 74 74 73 73 71 70 69 69 68 68 68 69 69 70 65 62 60 59 58 57 56 57 58 59 58 58 59 59 59 61 62 64 64 66 69 67 64 66 67 66 70 73
68 71 71 71 73 72 72 72 72 70 70 68 68 68 69 66 63 60 60 59 59 58 58 58 59 60 59 59 60 61 62 63 64 64 65 67 68 68 66 64 68 67 70
68 68 68 69 70 72 73 72 74 72 70 69 68 67 66 63 62 60 60 59 60 59 59 59 60 61 61 63 63 64 65 65 65 65 63 65 65 66 64 65 66 67 72
66 67 68 66 67 68 69 70 70 71 69 69 68 67 65 63 61 60 60 60 59 59 59 59 60 61 62 63 63 64 67 69 71 72 71 69 67 65 63 63 64 66 69
59 62 64 66 65 67 66 65 69 66 68 69 68 67 65 61 60 60 61 61 61 61 62 61 60 63 64 65 65 65 67 68 69 71 72 73 71 69 67 66 65 66 66
57 59 58 60 62 66 66 65 62 63 67 68 69 67 64 62 60 58 59 60 61 62 62 62 62 64 66 68 69 70 70 70 68 67 67 69 71 72 71 70 69 68 70
56 58 59 58 58 62 64 64 62 60 62 68 67 65 64 62 60 58 58 59 60 61 61 61 62 63 64 65 68 69 69 69 68 65 62 62 67 68 68 69 70 70 70
Wind_Direction
344 345 341 338 333 323 312 307 305 288 282 272 263 258 259 259 261 248 252 231 231 233 234 232 233 233 236 238 240 243 245 248 253 258 258 259 257 254 258 257 262 259 267
1 347 343 335 337 339 329 320 316 304 293 275 269 269 281 275 276 245 244 250 229 232 234 233 233 234 236 238 239 242 245 248 251 255 258 260 260 258 261 263 264 269 271
342 344 343 343 341 342 336 333 325 318 306 293 288 288 301 293 284 272 260 259 243 238 235 234 235 234 235 237 240 242 246 248 250 254 257 262 263 261 263 266 269 272 274
22 336 344 346 338 336 336 332 329 326 311 302 296 306 308 312 308 282 269 258 257 247 254 241 237 235 236 237 240 243 245 247 249 252 256 259 261 264 263 264 270 272 275
10 343 333 337 342 339 342 345 335 327 320 316 312 318 314 307 306 301 286 272 263 258 255 252 247 246 238 238 241 243 245 246 249 250 253 257 257 259 259 266 269 274 275
360 19 320 331 332 334 332 339 333 333 333 330 331 334 324 319 318 305 305 283 277 269 267 260 252 258 253 241 240 243 244 246 248 250 251 253 255 259 264 265 268 271 273
330 349 21 326 331 333 337 333 331 329 341 342 344 330 326 330 329 335 327 313 294 295 276 268 259 261 263 250 244 243 244 246 247 249 251 253 256 259 263 264 265 266 268
339 333 335 327 325 324 329 335 325 335 345 345 338 333 334 324 331 333 333 323 313 301 296 285 284 273 266 263 248 245 245 247 248 250 252 254 258 262 261 263 265 267 269
335 339 343 331 322 316 319 328 323 330 339 341 338 344 341 334 332 329 330 320 312 308 306 301 298 291 282 269 257 252 250 249 250 251 252 257 259 261 261 264 263 264 264
336 336 338 333 326 313 305 314 331 328 337 338 339 340 336 335 334 328 322 313 308 303 294 295 297 297 290 283 268 262 256 254 254 251 254 256 259 260 255 256 261 260 263
356 342 338 335 328 320 308 321 331 335 339 338 339 334 332 328 326 328 328 323 310 301 293 291 289 288 287 290 284 273 263 260 258 256 256 256 257 257 259 257 257 258 260
359 355 339 334 331 328 327 327 332 335 339 337 335 333 330 328 331 329 327 325 318 308 301 298 296 293 288 287 284 282 277 271 265 262 257 255 258 256 257 259 258 261 262
350 350 347 340 333 331 335 334 334 329 327 328 332 330 327 326 326 326 324 318 315 306 300 297 298 295 289 290 287 282 279 278 273 268 266 261 259 259 260 261 263 262 265
341 340 339 336 332 332 332 329 328 329 328 326 325 323 323 323 326 325 322 318 312 307 306 304 302 300 295 289 289 286 280 278 276 272 268 271 268 265 265 264 261 265 264
348 342 339 336 331 329 330 330 326 325 324 323 321 319 320 322 322 321 319 315 311 307 309 308 304 301 297 295 292 289 284 280 278 275 275 272 270 269 272 274 263 261 264
351 350 344 339 335 335 332 329 329 327 324 323 322 322 322 319 317 318 320 317 316 316 311 309 303 303 299 295 294 295 291 286 283 282 278 274 273 274 274 273 269 267 265
353 351 350 345 339 336 336 335 331 331 330 326 326 324 322 320 320 320 319 318 321 320 311 307 303 301 298 296 293 294 292 292 290 284 283 280 278 273 270 268 269 272 269
357 359 354 351 347 342 339 336 336 335 332 328 326 325 323 321 321 321 319 318 322 322 315 309 303 301 300 297 297 296 295 293 289 286 282 280 277 275 273 270 267 270 269
359 359 355 354 351 348 348 346 344 340 337 334 333 333 326 320 319 323 320 320 317 317 317 313 309 306 305 303 299 298 294 293 290 287 284 281 279 277 275 275 269 270 269
0 355 355 356 354 354 354 351 348 345 341 339 338 336 333 329 321 317 319 317 315 315 312 312 310 308 307 306 305 302 296 294 290 287 284 282 282 281 278 276 275 272 272
0 358 360 0 359 358 357 356 353 349 346 344 341 338 334 333 329 324 318 318 316 315 312 311 309 308 307 308 305 305 301 298 295 293 290 287 283 281 280 279 276 275 273
0 0 0 1 1 359 358 360 357 355 353 350 346 342 337 335 332 329 326 323 320 318 317 316 313 310 309 306 304 301 300 298 297 295 293 290 288 285 283 281 279 278 275
1 1 360 1 2 2 5 7 5 5 4 357 350 343 339 336 333 331 329 328 327 326 323 323 320 317 318 315 311 305 300 297 293 290 289 289 289 288 286 285 283 280 278
3 1 0 359 1 1 4 8 8 12 5 356 350 344 339 332 329 330 331 330 330 330 329 328 328 326 324 325 322 317 311 306 300 293 288 285 286 286 285 284 284 282 281
2 0 1 1 1 0 2 5 11 14 5 351 349 344 337 334 329 326 325 325 325 327 326 326 329 330 329 327 327 325 322 317 311 305 298 291 286 283 283 282 281 281 280
1 360 359 359 1 359 359 2 8 14 12 348 344 340 337 333 330 326 324 322 323 323 321 322 323 325 324 323 323 324 324 321 318 316 312 302 290 286 284 281 280 281 280